Alice, TX

9:52 AM CDT on August 23, 2017 (GMT -0500)
Alice International

Weather History for KALI - June, 2013

Change the Weather History Date:

Thursday, June 20, 2013

  Actual Average Record
Temperature  
Mean Temperature 84 °F -  
Max Temperature 95 °F 93 °F 104 °F (1998)
Min Temperature 75 °F 71 °F 69 °F (2001)
Cooling Degree Days 19    
Growing Degree Days 34 (Base 50)    
Moisture  
Dew Point 74 °F    
Average Humidity 74    
Maximum Humidity 100    
Minimum Humidity 52    
Precipitation  
Precipitation 0.02 in - - ()
Sea Level Pressure  
Sea Level Pressure 29.97 in    
Wind  
Wind Speed 11 mph (SSE)    
Max Wind Speed 20 mph    
Max Gust Speed 28 mph    
Visibility 10 miles    
Events Rain    
Averages and records for this station are not official NWS values.
T = Trace of Precipitation, MM = Missing Value Source: NWS Daily Summary

Daily Weather History Graph

Daily Weather History Graph

Search for Another Location

Airport or City:

Trip Planner

Search our weather history database for the weather conditions in past years. The results will help you decide how hot, cold, wet, or windy it might be!

Date:

Astronomy

Jun. 20, 2013 Rise Set
Actual Time 6:36 AM CDT 8:30 PM CDT
Civil Twilight 6:10 AM CDT 8:57 PM CDT
Nautical Twilight 5:37 AM CDT 9:29 PM CDT
Astronomical Twilight 5:03 AM CDT 10:03 PM CDT
Moon 5:42 PM CDT (6/20) 3:53 AM CDT (6/20)
Length of Visible Light 14h 47m
Length of Day
13h 54m
Waxing Gibbous, 89% of the Moon is Illuminated
Jun 20
Waxing Gibbous
Jun 23
Full
Jun 29
Last Quarter
Jul 8
New
Jul 15
First Quarter

Hourly Weather History & Observations

Time (CDT) Temp. Heat Index Dew Point Humidity Pressure Visibility Wind Dir Wind Speed Gust Speed Precip Events Conditions
12:53 AM 79.0 °F - 73.9 °F 84% 29.98 in 10.0 mi SSE 9.2 mph - N/A   Clear
1:53 AM 78.1 °F - 73.9 °F 87% 29.97 in 10.0 mi South 8.1 mph - N/A   Clear
2:53 AM 77.0 °F - 73.9 °F 90% 29.95 in 10.0 mi South 5.8 mph - N/A   Clear
3:53 AM 75.9 °F - 73.9 °F 94% 29.94 in 10.0 mi SSE 4.6 mph - N/A   Clear
4:53 AM 75.0 °F - 73.9 °F 96% 29.94 in 10.0 mi SE 5.8 mph - N/A   Scattered Clouds
5:40 AM 75.2 °F - 75.2 °F 100% 29.94 in 10.0 mi SSE 6.9 mph - N/A   Mostly Cloudy
5:53 AM 75.9 °F - 73.9 °F 94% 29.94 in 10.0 mi SSE 5.8 mph - N/A   Mostly Cloudy
6:53 AM 75.0 °F - 73.9 °F 96% 29.96 in 7.0 mi ESE 3.5 mph - N/A   Overcast
7:53 AM 78.1 °F - 75.9 °F 93% 29.98 in 9.0 mi ESE 3.5 mph - N/A   Overcast
8:53 AM 82.0 °F 89.4 °F 75.9 °F 82% 30.00 in 10.0 mi SE 13.8 mph - N/A   Overcast
9:53 AM 86.0 °F 93.0 °F 73.0 °F 65% 30.02 in 10.0 mi SSE 17.3 mph 24.2 mph N/A   Mostly Cloudy
10:53 AM 90.0 °F 97.9 °F 73.0 °F 57% 30.01 in 10.0 mi SSE 13.8 mph - N/A   Scattered Clouds
11:53 AM 91.0 °F 98.2 °F 72.0 °F 53% 30.01 in 10.0 mi South 10.4 mph 16.1 mph N/A   Mostly Cloudy
12:53 PM 91.9 °F 99.5 °F 72.0 °F 52% 29.99 in 10.0 mi SSE 13.8 mph 21.9 mph N/A   Mostly Cloudy
1:53 PM 93.0 °F 101.9 °F 73.0 °F 52% 29.97 in 10.0 mi ESE 18.4 mph 24.2 mph 0.00 in   Mostly Cloudy
2:28 PM 86.0 °F 93.4 °F 73.4 °F 66% 30.00 in 10.0 mi South 18.4 mph 24.2 mph 0.00 in Rain Light Rain
2:53 PM 86.0 °F 95.1 °F 75.0 °F 70% 29.98 in 10.0 mi South 11.5 mph 19.6 mph 0.02 in Rain Light Rain
3:53 PM 93.9 °F 104.0 °F 73.9 °F 52% 29.96 in 10.0 mi SSE 17.3 mph 24.2 mph 0.00 in   Partly Cloudy
4:53 PM 93.0 °F 101.9 °F 73.0 °F 52% 29.95 in 10.0 mi SE 18.4 mph 25.3 mph N/A   Partly Cloudy
5:53 PM 91.9 °F 99.5 °F 72.0 °F 52% 29.94 in 10.0 mi SSE 17.3 mph - N/A   Clear
6:53 PM 90.0 °F 95.4 °F 70.0 °F 52% 29.95 in 10.0 mi SSE 19.6 mph 27.6 mph N/A   Clear
7:53 PM 87.1 °F 93.6 °F 72.0 °F 61% 29.96 in 10.0 mi SE 19.6 mph 26.5 mph N/A   Clear
8:53 PM 84.0 °F 91.2 °F 73.9 °F 72% 29.96 in 10.0 mi SE 18.4 mph 24.2 mph N/A   Clear
9:53 PM 82.0 °F 88.6 °F 75.0 °F 79% 29.98 in 10.0 mi SSE 13.8 mph - N/A   Partly Cloudy
10:15 PM 80.6 °F 86.2 °F 75.2 °F 84% 29.99 in 10.0 mi SE 13.8 mph - N/A   Mostly Cloudy
10:53 PM 81.0 °F 87.3 °F 75.9 °F 85% 29.99 in 10.0 mi SE 15.0 mph - N/A   Mostly Cloudy
11:53 PM 81.0 °F 87.3 °F 75.9 °F 85% 30.01 in 10.0 mi SE 11.5 mph - N/A   Overcast